Date,TemperatureHighF,TemperatureAvgF,TemperatureLowF,DewpointHighF,DewpointAvgF,DewpointLowF,HumidityHigh,HumidityAvg,HumidityLow,PressureMaxIn,PressureMinIn,WindSpeedMaxMPH,WindSpeedAvgMPH,GustSpeedMaxMPH,PrecipitationSumIn
2013-1-1,46.3,40.9,36.9,36.1,30.7,21.8,77,67,51,30.00,29.88,6,1,6,0.00
2013-1-2,38.3,35.1,30.8,30.8,29.2,26.1,85,79,73,30.10,29.96,4,1,4,0.00
2013-1-3,39.8,30.2,22.1,25.4,19.3,15.9,80,64,45,30.21,30.10,4,0,4,0.00
2013-1-4,43.2,32.0,23.4,23.9,19.7,16.3,77,62,41,30.21,30.10,7,2,7,0.00
2013-1-5,45.9,34.8,22.7,28.4,21.7,16.0,77,60,39,30.36,30.15,4,1,4,0.00
2013-1-6,47.3,39.7,30.4,31.6,28.9,24.2,79,65,53,30.17,30.03,5,1,5,0.01
2013-1-7,42.1,36.8,26.1,29.5,26.0,20.6,82,65,56,30.44,30.14,6,1,6,0.00
2013-1-8,53.8,36.4,23.4,33.8,26.0,19.3,87,69,37,30.41,30.30,8,1,8,0.00
2013-1-9,59.4,43.3,26.1,46.8,35.3,21.3,86,74,53,30.42,30.26,6,1,6,0.00
2013-1-10,56.2,43.5,29.9,36.6,30.0,24.1,80,60,41,30.58,30.42,3,1,3,0.00
2013-1-11,48.6,45.1,41.2,44.7,36.1,28.4,91,71,55,30.44,30.09,5,1,5,0.00
2013-1-12,70.7,52.8,39.6,57.3,47.9,37.7,94,84,60,30.16,30.07,4,1,4,1.32
2013-1-13,68.8,56.0,44.1,58.5,50.6,41.4,94,83,65,30.10,29.98,7,1,7,0.00
2013-1-14,62.1,54.4,39.2,56.2,47.7,37.3,93,79,65,30.30,29.98,9,2,9,1.32
2013-1-15,39.2,37.4,35.6,37.4,35.3,33.9,94,92,88,30.32,30.09,7,2,7,0.88
2013-1-16,47.7,40.4,35.5,44.9,38.3,33.6,94,92,89,30.12,29.83,8,1,8,0.16
2013-1-17,46.3,41.6,34.4,42.8,35.9,27.1,91,81,53,30.11,29.97,5,1,5,0.01
2013-1-18,40.5,33.8,28.1,30.7,20.1,13.6,85,59,36,30.44,30.10,7,1,7,0.00
2013-1-19,68.0,40.2,30.1,35.3,25.0,20.3,71,56,25,30.39,30.00,7,2,7,0.00
2013-1-20,55.4,44.5,28.8,32.9,22.7,5.7,62,43,24,30.08,29.89,10,3,10,0.00
2013-1-21,47.9,35.1,25.0,21.9,15.0,6.4,70,45,28,30.08,29.80,10,2,10,0.00
2013-1-22,28.1,19.9,14.4,9.5,-1.0,-5.5,51,40,29,30.24,29.93,9,3,10,0.00
2013-1-23,30.8,20.6,9.0,14.4,2.5,-2.2,70,46,30,30.29,30.05,6,1,6,0.00
2013-1-24,25.6,20.4,11.9,16.5,7.8,0.9,84,60,38,30.50,30.00,12,2,12,0.00
2013-1-25,25.2,17.9,9.7,17.6,9.1,1.2,74,68,50,30.49,30.00,4,1,4,0.00
2013-1-26,39.2,28.3,20.7,24.8,19.7,15.3,82,70,54,30.41,30.01,7,1,7,0.00
2013-1-27,40.7,28.6,17.8,25.2,19.7,12.6,82,70,54,30.54,30.40,5,1,5,0.00
2013-1-28,53.8,42.0,32.2,44.5,35.2,23.8,86,77,69,30.42,30.10,6,2,6,0.00
2013-1-29,72.0,56.7,45.0,56.1,48.4,41.5,90,75,56,30.15,29.99,6,1,6,0.00
2013-1-30,69.5,60.9,52.0,60.2,54.9,45.5,93,81,71,29.99,29.32,12,2,12,0.89
2013-1-31,56.2,38.1,27.4,54.0,26.8,16.7,93,64,45,29.90,29.30,12,4,12,0.08